CW9822 Weather Reports


time (UTC)temp
C
wind
direction
speed
KPH
gust
KPH
rain 1hr
cm
rain 24hr
cm
rain mn
cm
humidity
%
barometer
mb
20260507062835 9 247 0.0 0.0 0.00 0.00 0.00 90 1021.2
20260507062324 10 247 0.0 0.0 0.00 0.00 0.00 90 1021.2
20260507061834 10 247 0.0 0.0 0.00 0.00 0.00 90 1021.2
20260507061323 10 247 0.0 0.0 0.00 0.00 0.00 90 1021.1
20260507060816 10 247 0.0 0.0 0.00 0.00 0.00 90 1021.1
20260507060325 10 247 0.0 0.0 0.00 0.00 0.00 90 1021.1
20260507055835 10 247 0.0 0.0 0.00 0.00 0.00 89 1021.1
20260507055322 10 247 0.0 0.0 0.00 0.00 0.00 89 1021.1
20260507054831 10 247 0.0 0.0 0.00 0.00 0.00 89 1021.2
20260507054320 10 247 0.0 0.0 0.00 0.00 0.00 89 1021.2
20260507053828 10 247 0.0 0.0 0.00 0.00 0.00 88 1021.2
20260507053319 10 247 0.0 0.0 0.00 0.00 0.00 88 1021.1
20260507052828 10 247 0.0 0.0 0.00 0.00 0.00 88 1021.1
20260507052317 10 247 0.0 0.0 0.00 0.00 0.00 88 1021.1
20260507051826 10 247 0.0 0.0 0.00 0.00 0.00 88 1021.1
20260507051317 11 247 0.0 0.0 0.00 0.00 0.00 88 1021.0
20260507050827 11 247 0.0 0.0 0.00 0.00 0.00 88 1021.1
20260507050314 11 247 0.0 0.0 0.00 0.00 0.00 88 1021.1
20260507045826 11 247 0.0 0.0 0.00 0.00 0.00 87 1021.0
20260507045336 11 247 0.0 0.0 0.00 0.00 0.00 87 1021.0
20260507044827 11 247 0.0 0.0 0.00 0.00 0.00 86 1021.0
20260507044315 11 247 0.0 0.0 0.00 0.00 0.00 86 1021.0
20260507043828 11 247 0.0 0.0 0.00 0.00 0.00 86 1021.0
20260507043320 11 247 0.0 0.0 0.00 0.00 0.00 85 1020.9
20260507042813 11 247 0.0 0.0 0.00 0.00 0.00 85 1020.8
20260507042325 12 247 0.0 0.0 0.00 0.00 0.00 85 1020.7
20260507041835 12 247 0.0 0.0 0.00 0.00 0.00 84 1020.7
20260507041323 12 247 0.0 0.0 0.00 0.00 0.00 84 1020.7
20260507040832 12 247 0.0 0.0 0.00 0.00 0.00 84 1020.6
20260507040321 12 247 0.0 0.0 0.00 0.00 0.00 83 1020.5
20260507035831 12 247 0.0 0.0 0.00 0.00 0.00 83 1020.4
20260507035319 12 247 0.0 0.0 0.00 0.00 0.00 83 1020.3
20260507034829 12 247 0.0 0.0 0.00 0.00 0.00 82 1020.3
20260507034319 13 247 0.0 0.0 0.00 0.00 0.00 82 1020.3
20260507033848 13 247 0.0 0.0 0.00 0.00 0.00 81 1020.3
20260507033320 13 247 0.0 0.0 0.00 0.00 0.00 81 1020.3
20260507032829 13 247 0.0 0.0 0.00 0.00 0.00 80 1020.2
20260507032320 13 247 0.0 0.0 0.00 0.00 0.00 79 1020.2
20260507031848 13 247 0.0 0.0 0.00 0.00 0.00 78 1020.1
20260507031316 14 247 0.0 0.0 0.00 0.00 0.00 79 1020.1
20260507030826 14 247 0.0 0.0 0.00 0.00 0.00 78 1020.1
20260507030335 14 247 0.0 1.6 0.00 0.00 0.00 78 1020.1
20260507025844 14 243 0.0 0.0 0.00 0.00 0.00 77 1019.9
20260507025353 15 241 0.0 0.0 0.00 0.00 0.00 77 1019.9
20260507024820 15 243 0.0 0.0 0.00 0.00 0.00 77 1019.9
20260507024330 15 243 0.0 0.0 0.00 0.00 0.00 76 1019.8
20260507023827 15 243 0.0 1.6 0.00 0.00 0.00 76 1019.9
20260507023316 15 243 0.0 0.0 0.00 0.00 0.00 76 1019.8
20260507022847 15 243 0.0 3.2 0.00 0.00 0.00 76 1019.8
20260507022336 15 243 0.0 4.8 0.00 0.00 0.00 75 1019.9
20260507021825 15 243 0.0 4.8 0.00 0.00 0.00 75 1019.8
20260507021355 15 261 0.0 1.6 0.00 0.00 0.00 75 1019.8
20260507020824 15 262 0.0 0.0 0.00 0.00 0.00 75 1019.8
20260507020335 16 219 0.0 1.6 0.00 0.00 0.00 75 1019.9
20260507015825 16 219 0.0 3.2 0.00 0.00 0.00 74 1019.9
20260507015314 16 219 0.0 3.2 0.00 0.00 0.00 74 1019.9
20260507014831 16 206 0.0 3.2 0.00 0.00 0.00 74 1019.9
20260507014321 16 199 0.0 0.0 0.00 0.00 0.00 74 1019.9
20260507013834 16 199 0.0 3.2 0.00 0.00 0.00 74 1019.8
20260507013327 16 199 0.0 3.2 0.00 0.00 0.00 73 1019.8
20260507012824 16 199 0.0 1.6 0.00 0.00 0.00 73 1019.9
20260507012316 16 199 0.0 6.4 0.00 0.00 0.00 72 1019.9
20260507011829 16 283 0.0 3.2 0.00 0.00 0.00 72 1019.9
20260507011320 16 263 0.0 3.2 0.00 0.00 0.00 72 1019.9
20260507010828 16 256 0.0 8.0 0.00 0.00 0.00 72 1019.9
20260507010324 17 241 1.6 8.0 0.00 0.00 0.00 71 1020.0
20260507005834 17 202 0.0 4.8 0.00 0.00 0.00 71 1019.9
20260507005342 17 204 0.0 6.4 0.00 0.00 0.00 70 1020.0
20260507004829 17 219 1.6 6.4 0.00 0.00 0.00 69 1019.9
20260507004323 17 278 0.0 6.4 0.00 0.00 0.00 70 1019.9
20260507003832 17 238 0.0 3.2 0.00 0.00 0.00 69 1019.8
20260507003342 17 234 0.0 3.2 0.00 0.00 0.00 69 1019.8
20260507002830 18 301 0.0 11.3 0.00 0.00 0.00 68 1019.8
20260507002322 18 301 0.0 11.3 0.00 0.00 0.00 67 1019.7
20260507001831 18 156 0.0 1.6 0.00 0.00 0.00 68 1019.8
20260507001320 18 168 0.0 6.4 0.00 0.00 0.00 66 1019.7
20260507000833 18 242 0.0 1.6 0.00 0.00 0.00 66 1019.8
20260507000322 19 229 0.0 6.4 0.00 0.00 0.00 66 1019.7
20260506235830 19 229 0.0 6.4 0.00 0.00 0.00 66 1019.7
20260506235341 19 214 0.0 4.8 0.00 0.00 0.00 66 1019.7
20260506234833 19 171 0.0 1.6 0.00 0.00 0.00 65 1019.6
20260506234326 19 171 0.0 3.2 0.00 0.00 0.00 66 1019.5
20260506233824 19 170 0.0 3.2 0.00 0.00 0.00 64 1019.7
20260506233318 19 81 0.0 4.8 0.00 0.00 0.00 66 1019.6
20260506232831 19 82 0.0 4.8 0.00 0.00 0.00 65 1019.6
20260506232328 20 214 0.0 4.8 0.00 0.00 0.00 64 1019.6
20260506231841 20 185 0.0 3.2 0.00 0.00 0.00 66 1019.6
20260506231335 20 180 0.0 6.4 0.00 0.00 0.00 65 1019.7
20260506230827 20 180 1.6 6.4 0.00 0.00 0.00 64 1019.7
20260506230320 20 233 0.0 3.2 0.00 0.00 0.00 63 1019.8
20260506225833 20 225 0.0 3.2 0.00 0.00 0.00 62 1019.7
20260506225346 21 238 0.0 6.4 0.00 0.00 0.00 64 1019.7
20260506224818 21 241 1.6 6.4 0.00 0.00 0.00 62 1019.7
20260506224331 21 239 0.0 3.2 0.00 0.00 0.00 62 1019.8
20260506223832 21 233 0.0 4.8 0.00 0.00 0.00 64 1019.8
20260506223326 21 191 0.0 4.8 0.00 0.00 0.00 62 1020.0
20260506222819 21 163 0.0 3.2 0.00 0.00 0.00 64 1019.9
20260506222355 21 144 0.0 3.2 0.00 0.00 0.00 62 1019.9
20260506221843 21 209 0.0 3.2 0.00 0.00 0.00 59 1019.9
20260506221356 21 207 0.0 4.8 0.00 0.00 0.00 61 1019.9
20260506220845 22 220 0.0 4.8 0.00 0.00 0.00 58 1019.9
20260506220333 22 229 0.0 3.2 0.00 0.00 0.00 60 1019.9
20260506215822 22 267 0.0 3.2 0.00 0.00 0.00 61 1020.0
20260506215330 21 225 0.0 1.6 0.00 0.00 0.00 64 1019.9
20260506214823 21 207 0.0 0.0 0.00 0.00 0.00 61 1019.9
20260506214353 22 208 0.0 6.4 0.00 0.00 0.00 61 1019.8
20260506213825 21 208 1.6 6.4 0.00 0.00 0.00 64 1019.9
20260506213334 21 216 0.0 6.4 0.00 0.00 0.00 65 1019.9
20260506212824 21 216 0.0 6.4 0.00 0.00 0.00 63 1019.9
20260506212336 21 235 0.0 4.8 0.00 0.00 0.00 64 1020.1
20260506211828 20 341 0.0 4.8 0.00 0.00 0.00 64 1020.1
20260506211321 21 256 0.0 0.0 0.00 0.00 0.00 66 1019.9
20260506210830 20 256 0.0 1.6 0.00 0.00 0.00 66 1020.1
20260506210319 20 256 0.0 1.6 0.00 0.00 0.00 66 1020.2
20260506205832 20 256 0.0 1.6 0.00 0.00 0.00 65 1020.2
20260506205323 20 254 0.0 1.6 0.00 0.00 0.00 68 1020.2
20260506204833 19 254 0.0 3.2 0.00 0.00 0.00 66 1020.3
20260506204321 18 131 0.0 1.6 0.00 0.00 0.00 71 1020.3
20260506203813 18 130 0.0 1.6 0.00 0.00 0.00 68 1020.4
20260506203346 18 130 0.0 0.0 0.00 0.00 0.00 72 1020.5
20260506202835 17 130 0.0 0.0 0.00 0.00 0.00 71 1020.4
20260506202323 18 130 0.0 4.8 0.00 0.00 0.00 71 1020.5
20260506201833 18 130 0.0 4.8 0.00 0.00 0.00 69 1020.5
20260506201330 18 211 0.0 3.2 0.00 0.00 0.00 68 1020.5
20260506200823 18 210 0.0 3.2 0.00 0.00 0.00 68 1020.5
20260506200316 19 233 0.0 0.0 0.00 0.00 0.00 69 1020.4
20260506195829 18 239 0.0 0.0 0.00 0.00 0.00 69 1020.5
20260506195322 18 226 0.0 3.2 0.00 0.00 0.00 69 1020.5
20260506194816 18 225 0.0 1.6 0.00 0.00 0.00 68 1020.5
20260506194328 18 230 0.0 3.2 0.00 0.00 0.00 70 1020.5
20260506193822 17 226 0.0 3.2 0.00 0.00 0.00 71 1020.5
20260506193319 17 157 0.0 3.2 0.00 0.00 0.00 72 1020.5
20260506192833 17 86 0.0 3.2 0.00 0.00 0.00 71 1020.4
20260506192326 17 86 0.0 3.2 0.00 0.00 0.00 70 1020.5
20260506191838 17 200 0.0 4.8 0.00 0.00 0.00 73 1020.5
20260506191347 17 208 0.0 4.8 0.00 0.00 0.00 72 1020.4
20260506190836 17 195 0.0 1.6 0.00 0.00 0.00 74 1020.4
20260506190324 16 101 0.0 3.2 0.00 0.00 0.00 75 1020.5
20260506185820 16 201 0.0 3.2 0.00 0.00 0.00 74 1020.6
20260506185316 16 212 0.0 0.0 0.00 0.00 0.00 76 1020.6
20260506184829 16 212 0.0 1.6 0.00 0.00 0.00 75 1020.6
20260506184327 16 212 0.0 4.8 0.00 0.00 0.00 77 1020.5
20260506183821 16 158 0.0 4.8 0.00 0.00 0.00 75 1020.6
20260506183334 16 166 0.0 4.8 0.00 0.00 0.00 76 1020.7
20260506182848 16 101 1.6 4.8 0.00 0.00 0.00 77 1020.8
20260506182320 15 220 0.0 8.0 0.00 0.00 0.00 75 1020.8
20260506181833 16 223 1.6 11.3 0.00 0.00 0.00 77 1020.7
20260506181327 16 154 1.6 11.3 0.00 0.00 0.00 76 1020.8
20260506180820 15 193 0.0 0.0 0.00 0.00 0.00 79 1020.8
20260506180318 15 221 0.0 0.0 0.00 0.00 0.00 81 1020.8
20260506175829 15 221 0.0 4.8 0.00 0.00 0.00 77 1020.7
20260506175323 15 221 0.0 4.8 0.00 0.00 0.00 78 1020.7
20260506174817 15 232 0.0 4.8 0.00 0.00 0.00 80 1020.6
20260506174330 15 246 0.0 4.8 0.00 0.00 0.00 79 1020.5
20260506173843 15 244 1.6 4.8 0.00 0.00 0.00 79 1020.5
20260506173335 15 251 0.0 1.6 0.00 0.00 0.00 79 1020.4
20260506172828 15 219 0.0 1.6 0.00 0.00 0.00 80 1020.4
20260506172324 14 219 0.0 0.0 0.00 0.00 0.00 81 1020.5
20260506171822 14 219 0.0 0.0 0.00 0.00 0.00 81 1020.7
20260506171332 14 220 0.0 0.0 0.00 0.00 0.00 83 1020.8
20260506170821 14 220 0.0 1.6 0.00 0.00 0.00 82 1020.7
20260506170333 14 220 0.0 1.6 0.00 0.00 0.00 84 1020.6
20260506165821 13 220 0.0 1.6 0.00 0.00 0.00 86 1020.5
20260506165331 13 220 0.0 1.6 0.00 0.00 0.00 85 1020.4
20260506164820 13 216 0.0 0.0 0.00 0.00 0.00 84 1020.6
20260506164329 13 216 0.0 0.0 0.00 0.00 0.00 84 1020.6
20260506163818 13 216 0.0 0.0 0.00 0.00 0.00 85 1020.8
20260506163332 13 216 0.0 0.0 0.00 0.00 0.00 85 1020.8
20260506162820 13 216 0.0 0.0 0.00 0.00 0.00 86 1020.8
20260506162329 13 216 0.0 0.0 0.00 0.00 0.00 86 1020.7
20260506161819 13 216 0.0 0.0 0.00 0.00 0.00 87 1020.6
20260506161328 12 216 0.0 0.0 0.00 0.00 0.00 86 1020.6
20260506160820 12 216 0.0 0.0 0.00 0.00 0.00 87 1020.5
20260506160330 12 216 0.0 3.2 0.00 0.00 0.00 87 1020.4
20260506155818 12 217 0.0 1.6 0.00 0.00 0.00 87 1020.3
20260506155329 12 206 0.0 0.0 0.00 0.00 0.00 88 1020.3
20260506154821 12 206 0.0 1.6 0.00 0.00 0.00 89 1020.1
20260506154333 12 206 0.0 3.2 0.00 0.00 0.00 89 1020.2
20260506153823 11 206 0.0 3.2 0.00 0.00 0.00 90 1020.3
20260506153354 11 191 0.0 0.0 0.00 0.00 0.00 90 1020.4
20260506152822 11 191 0.0 0.0 0.00 0.00 0.00 90 1020.5
20260506152335 11 191 0.0 0.0 0.00 0.00 0.00 90 1020.6
20260506151826 11 191 0.0 0.0 0.00 0.00 0.00 91 1020.7
20260506151316 11 191 0.0 0.0 0.00 0.00 0.00 92 1020.7
20260506150826 11 191 0.0 0.0 0.00 0.00 0.00 92 1020.7
20260506150317 11 191 0.0 0.0 0.00 0.00 0.00 92 1020.6
20260506145827 11 191 0.0 0.0 0.00 0.00 0.00 92 1020.7
20260506145320 11 191 0.0 0.0 0.00 0.00 0.00 92 1021.0
20260506144829 11 191 0.0 0.0 0.00 0.00 0.00 92 1020.9
20260506144323 11 191 0.0 0.0 0.00 0.00 0.00 92 1020.7
20260506143831 11 191 0.0 0.0 0.00 0.00 0.00 92 1020.7
20260506143320 11 191 0.0 0.0 0.00 0.00 0.00 92 1020.6
20260506142829 11 191 0.0 0.0 0.00 0.00 0.00 92 1020.2
20260506142319 11 191 0.0 0.0 0.00 0.00 0.00 93 1020.2
20260506141848 11 191 0.0 0.0 0.00 0.00 0.00 93 1020.2
20260506141341 11 191 0.0 0.0 0.00 0.00 0.00 93 1020.0
20260506140828 11 191 0.0 0.0 0.00 0.00 0.00 93 1019.7
20260506140321 11 191 0.0 0.0 0.00 0.00 0.00 92 1019.9
20260506135831 11 191 0.0 0.0 0.00 0.00 0.00 92 1019.8
20260506135321 11 191 0.0 0.0 0.00 0.00 0.00 92 1019.6
20260506134832 11 191 0.0 0.0 0.00 0.00 0.00 92 1019.7
20260506134322 11 191 0.0 1.6 0.00 0.00 0.00 93 1019.6
20260506133832 11 191 0.0 1.6 0.00 0.00 0.00 93 1019.6
20260506133322 11 180 0.0 0.0 0.00 0.00 0.00 93 1019.6
20260506132831 11 180 0.0 0.0 0.00 0.00 0.00 94 1019.7
20260506132340 11 180 0.0 0.0 0.00 0.00 0.00 94 1019.6
20260506131828 11 180 0.0 0.0 0.00 0.00 0.00 93 1019.6
20260506131357 11 180 0.0 0.0 0.00 0.00 0.00 93 1019.5
20260506130844 11 180 0.0 0.0 0.00 0.00 0.00 93 1019.6
20260506130318 11 180 0.0 0.0 0.00 0.00 0.00 93 1019.5
20260506125829 11 180 0.0 0.0 0.00 0.00 0.00 94 1019.5
20260506125338 11 180 0.0 0.0 0.00 0.00 0.00 94 1019.5
20260506124826 11 180 0.0 0.0 0.00 0.00 0.00 94 1019.4
20260506124335 11 180 0.0 0.0 0.00 0.00 0.00 94 1019.3
20260506123824 11 180 0.0 0.0 0.00 0.00 0.00 94 1019.2
20260506123334 11 175 0.0 0.0 0.00 0.00 0.00 94 1019.3
20260506122823 11 175 0.0 0.0 0.00 0.00 0.00 94 1019.3
20260506122333 11 175 0.0 0.0 0.00 0.00 0.00 94 1019.5
20260506121826 11 175 0.0 0.0 0.00 0.00 0.00 94 1019.4
20260506121334 11 175 0.0 0.0 0.00 0.00 0.00 94 1019.4
20260506120824 11 175 0.0 0.0 0.00 0.00 0.00 94 1019.3
20260506120332 11 175 0.0 0.0 0.00 0.00 0.00 94 1019.2
20260506115824 11 175 0.0 0.0 0.00 0.00 0.00 94 1019.3
20260506115334 11 175 0.0 0.0 0.00 0.00 0.00 94 1019.2
20260506114823 11 175 0.0 0.0 0.00 0.00 0.00 94 1019.2
20260506114353 11 175 0.0 0.0 0.00 0.00 0.00 94 1019.2
20260506113820 11 175 0.0 0.0 0.00 0.00 0.00 94 1019.2
20260506113331 11 175 0.0 0.0 0.00 0.00 0.00 94 1019.0
20260506112824 11 175 0.0 0.0 0.00 0.00 0.00 94 1018.7
20260506112332 11 175 0.0 0.0 0.00 0.00 0.00 94 1018.8
20260506111842 11 175 0.0 0.0 0.00 0.00 0.00 94 1018.8
20260506111329 11 175 0.0 0.0 0.00 0.00 0.00 94 1018.8
20260506110819 11 175 0.0 0.0 0.00 0.00 0.00 94 1018.7
20260506110328 11 175 0.0 0.0 0.00 0.00 0.00 94 1018.7
20260506105817 11 175 0.0 0.0 0.00 0.00 0.00 94 1018.6
20260506105329 11 175 0.0 0.0 0.00 0.00 0.00 94 1018.5
20260506104818 11 175 0.0 0.0 0.00 0.00 0.00 94 1018.4
20260506104328 11 175 0.0 0.0 0.00 0.00 0.00 94 1018.3
20260506103824 11 175 0.0 0.0 0.00 0.00 0.00 94 1018.2
20260506103353 11 175 0.0 0.0 0.00 0.00 0.00 94 1018.3
20260506102821 11 175 0.0 0.0 0.00 0.00 0.00 94 1018.2
20260506102331 11 175 0.0 0.0 0.00 0.00 0.00 94 1018.2
20260506101820 11 175 0.0 0.0 0.00 0.00 0.00 94 1018.3
20260506101354 11 175 0.0 0.0 0.00 0.00 0.00 94 1018.2
20260506100843 11 175 0.0 0.0 0.00 0.00 0.00 94 1018.1
20260506100331 11 175 0.0 0.0 0.00 0.00 0.00 94 1018.0
20260506095820 11 175 0.0 0.0 0.00 0.00 0.00 94 1018.0
20260506095330 10 175 0.0 0.0 0.00 0.00 0.00 94 1018.0
20260506094819 10 175 0.0 0.0 0.00 0.00 0.00 94 1017.9
20260506094316 10 175 0.0 0.0 0.00 0.00 0.00 94 1017.9
20260506093827 10 175 0.0 0.0 0.00 0.00 0.00 93 1017.9
20260506093315 10 175 0.0 0.0 0.00 0.00 0.00 93 1017.7
20260506092828 10 175 0.0 0.0 0.00 0.00 0.00 93 1017.6
20260506092316 10 175 0.0 0.0 0.00 0.00 0.00 92 1017.6
20260506091846 10 175 0.0 0.0 0.00 0.00 0.00 92 1017.6
20260506091335 10 175 0.0 0.0 0.00 0.00 0.00 92 1017.6
20260506090825 10 175 0.0 0.0 0.00 0.00 0.00 92 1017.6
20260506090335 10 175 0.0 0.0 0.00 0.00 0.00 91 1017.5
20260506085828 10 175 0.0 0.0 0.00 0.00 0.00 91 1017.5
20260506085316 11 175 0.0 0.0 0.00 0.00 0.00 91 1017.5
20260506084846 11 175 0.0 0.0 0.00 0.00 0.00 91 1017.5
20260506084334 11 175 0.0 0.0 0.00 0.00 0.00 91 1017.5
20260506083822 11 175 0.0 0.0 0.00 0.00 0.00 92 1017.5
20260506083334 11 175 0.0 0.0 0.00 0.00 0.00 91 1017.5
20260506082823 11 175 0.0 0.0 0.00 0.00 0.00 91 1017.5
20260506082354 11 175 0.0 0.0 0.00 0.00 0.00 91 1017.5
20260506081822 11 175 0.0 0.0 0.00 0.00 0.00 91 1017.5
20260506081331 11 175 0.0 0.0 0.00 0.00 0.00 91 1017.5
20260506080822 11 175 0.0 0.0 0.00 0.00 0.00 91 1017.5
20260506080330 11 175 0.0 0.0 0.00 0.00 0.00 91 1017.5
20260506073327 12 175 0.0 0.0 0.00 0.00 0.00 91 1017.4
20260506072816 12 175 0.0 0.0 0.00 0.00 0.00 90 1017.5
20260506072346 12 175 0.0 0.0 0.00 0.00 0.00 90 1017.4
20260506071855 12 175 0.0 0.0 0.00 0.00 0.00 90 1017.4
20260506071322 12 175 0.0 0.0 0.00 0.00 0.00 90 1017.4
20260506070832 12 175 0.0 0.0 0.00 0.00 0.00 90 1017.4
20260506070320 12 175 0.0 0.0 0.00 0.00 0.00 89 1017.3